Voltar ao catálogo

STARLINK-30759

AtivoComunicaçõesVLEO
NORAD 58122·PAYLOAD·🇺🇸 United States

Lançado Oct 22, 2023 de Cape Canaveral Space Force Station

Loading…

Próximas Passagens (próximas 24 horas)

TLE

AtualizadoSource: CelesTrak SupGP

Época: Sep 15, 2026, 02:31 UTC

1 58122C 23162E   26258.10534722  .00075161  00000+0  27216-2 0  2586
2 58122  43.0026 142.6050 0001403 276.1612 235.5008 15.27549692    10

Acompanhe STARLINK-30759 em tempo real com AllMySat

Download on the App Store